Location: Kalamazoo
(42.2920°N, 85.5870°W)
Time: 18:31:51
(UTC-04:00)

Daily predictions for brighter satellites

Satellite Brightness Start Highest point End
(mag) Time Altitude Azimuth Time Altitude Azimuth Time Altitude Azimuth
BREEZE-M DEB (TANK) 4.1 21:18:00 10° WNW 21:21:43 77° SSW 21:34:05 10° ESE
Cosmos 1437 3.3 21:31:55 10° SSE 21:34:54 36° E 21:37:55 10° NNE
Lacrosse 5 rocket 4.3 21:32:25 10° WNW 21:35:37 18° NNW 21:38:52 10° NNE
CZ-4B DEB 3.1 21:32:56 10° SSE 21:35:47 43° ENE 21:38:40 10° N
Helios 1A 3.0 21:31:45 10° SSE 21:35:57 70° ENE 21:40:09 10° N
Meteor 1-29 3.2 21:36:52 10° NNE 21:40:08 44° E 21:43:21 10° S
SJ-11-01 4.3 21:38:27 10° SSE 21:43:05 70° ENE 21:47:47 10° N
Cosmos 1656 Rocket 3.9 21:38:42 10° NNW 21:44:04 57° ENE 21:49:28 10° SE
Cosmos 2369 Rocket 3.8 21:39:55 10° NW 21:44:57 34° WSW 21:50:00 10° SSW
YAOGAN 6 3.1 21:42:39 10° SE 21:45:56 39° ENE 21:49:13 10° N
SAR-Lupe-4 3.5 21:42:34 10° SSE 21:46:07 75° ENE 21:49:43 10° N
ERS-1 Rocket 3.6 21:42:09 10° SE 21:46:48 40° ENE 21:51:27 10° N
Cosmos 1544 Rocket 3.9 21:45:09 10° NNW 21:49:28 69° W 21:53:45 10° S
Cosmos 1818 3.6 21:44:44 10° SSW 21:50:10 80° ESE 21:55:38 10° NE
RESURS DK-1 3.4 21:47:42 10° SW 21:51:44 52° WNW 21:55:48 10° NNE
Cosmos 405 Rocket 3.0 21:48:22 10° SSE 21:51:55 44° E 21:55:34 10° NNE
Okean 1 4.0 21:50:36 10° SSW 21:54:29 57° W 21:58:25 10° N
Resurs 01 Rocket 3.6 21:51:09 10° SSW 21:55:00 29° W 21:58:52 10° NW
NOSS 2-2 (D) 3.4 21:51:24 10° SSW 21:55:19 61° ESE 21:59:48 10° NE
H-2A R/B 3.7 21:53:21 10° ESE 21:56:36 18° ENE 21:59:53 10° NNE
Cosmos 1975 3.4 21:53:24 10° NNW 21:57:25 60° W 22:01:25 10° S
Cosmos 2112 Rocket 4.4 21:55:10 10° S 22:00:01 40° ESE 22:04:52 10° NE
Cosmos 1943 Rocket 3.1 21:54:45 10° NW 22:00:07 47° WSW 22:05:24 10° S
Cosmos 773 Rocket 4.1 21:55:35 10° SSW 22:00:44 81° WNW 22:05:55 10° NNE
CENTAUR R/B 3.2 21:53:19 10° NW 22:01:15 84° NE 22:09:18 12° SE
Cosmos 1025 Rocket 4.1 21:58:34 11° SE 22:01:53 25° E 22:05:24 10° NNE
SAR-Lupe-1 4.2 21:59:20 10° S 22:02:55 78° WSW 22:06:32 10° NNW
Cosmos 1500 4.5 21:59:57 10° NNW 22:03:30 40° W 22:07:01 10° SSW
USA 81 4.1 21:58:32 10° S 22:03:49 88° W 22:09:08 10° N
Cosmos 1441 Rocket 3.9 22:01:21 10° SSE 22:04:42 32° E 22:08:04 10° NNE
Meteor 1-13 Rocket 4.3 22:00:39 10° S 22:06:34 76° E 22:12:28 10° NNE
PSLV R/B 3.0 22:04:49 10° W 22:07:56 71° S 22:10:40 13° E
Nadezhda 1 Rocket 4.3 22:01:51 10° SSE 22:07:57 52° E 22:14:08 10° NNE
Helios 1B rocket 3.1 22:06:29 10° N 22:10:33 58° WNW 22:14:37 10° SSW
NOAA 11 4.4 22:07:47 12° SSE 22:12:43 55° ENE 22:18:02 10° N
Cosmos 1939 Rocket 3.5 22:09:17 10° S 22:13:03 52° W 22:16:51 10° NNW
NOSS 2-2 (C) 3.5 22:10:04 10° SW 22:14:05 86° NW 22:18:42 10° NE
Cosmos 1455 Rocket 4.2 22:10:38 10° NNW 22:14:46 42° W 22:18:51 10° SSW
COSMOS 2455 3.7 22:10:20 10° NW 22:16:02 45° WSW 22:21:42 10° S
COSMOS 2406 3.2 22:10:37 10° SSW 22:16:20 75° ESE 22:22:03 10° NNE
Cosmos 374 Rocket 4.2 22:13:46 10° NW 22:17:33 83° SW 22:20:27 18° SSE
ARGOS 3.7 22:13:33 15° SE 22:17:48 45° ENE 22:22:57 10° N
SL-27 R/B 2.9 22:14:46 10° S 22:18:14 43° ESE 22:21:44 10° NNE
Cosmos 1680 Rocket 3.4 22:18:18 10° SSW 22:23:31 78° ESE 22:28:45 10° NNE
SPOT 5 3.1 22:23:04 18° SE 22:25:55 45° ENE 22:30:04 10° N
Cosmos 2056 Rocket 4.4 22:21:17 10° N 22:25:59 33° ENE 22:29:09 18° ESE
Cosmos 1346 3.2 22:23:57 10° SSW 22:26:41 64° W 22:29:26 10° N
H-2A R/B 4.1 22:24:49 12° E 22:27:07 16° ENE 22:29:54 10° NNE
Cosmos 1743 3.5 22:24:50 10° NNW 22:28:37 51° W 22:32:23 10° S
Cosmos 2082 Rocket 3.9 22:28:02 14° ESE 22:28:42 14° E 22:31:32 10° ENE
Cosmos 405 3.0 22:29:27 10° N 22:33:01 64° E 22:34:57 25° SSE
Terra 3.3 22:37:12 16° ESE 22:39:27 23° ENE 22:43:08 10° NNE
ASTEX 1 3.7 22:36:30 10° S 22:41:20 68° W 22:46:15 10° N
Cosmos 2341 Rocket 4.3 22:37:27 10° N 22:43:39 53° ENE 22:47:39 22° SSE
MetOp-B 4.1 22:40:01 17° SSE 22:44:11 86° WSW 22:49:35 10° NNW
Tiangong 2 1.4 22:42:04 10° SW 22:45:05 43° SSE 22:45:36 39° SE
COSMOS 2487 4.4 22:47:22 16° E 22:47:22 16° E 22:48:53 10° ENE
SPOT 1/Viking Rocket 3.7 22:44:16 23° SE 22:47:20 57° ENE 22:52:24 10° N
Cosmos 1437 Rocket 2.9 22:44:07 10° N 22:47:53 56° ENE 22:49:25 32° SE
Aureole 3 Rocket 4.5 22:43:34 10° SSW 22:50:08 53° W 22:54:50 10° N
Okean 1-7 Rocket 3.7 22:46:16 12° S 22:50:27 80° W 22:54:58 10° N
Okean 2 3.3 22:50:04 23° S 22:52:31 73° E 22:56:36 10° NNE
Cosmos 1697 Rocket 4.3 22:48:48 10° N 22:53:08 22° NE 22:56:25 14° E
Cosmos 1238 Rocket 4.3 22:47:40 10° SSW 22:54:23 77° W 23:01:00 10° N
Meteor 2-9 Rocket 4.5 22:49:58 10° NNW 22:55:23 65° W 22:59:47 16° S
Aureole 1 Rocket 3.3 22:52:53 10° SW 22:56:09 45° WNW 22:59:04 10° N
ISS -4.0 22:54:19 10° SW 22:57:35 68° SE 23:00:52 10° ENE
Cosmos 1666 4.2 22:55:39 10° NNW 22:59:01 32° W 23:01:55 13° SSW
DNEPR-1 R/B 4.2 22:58:22 10° NW 23:02:28 47° WSW 23:04:38 26° S
Meteor 2-4 Rocket 4.4 22:57:24 10° SSW 23:02:54 55° WNW 23:08:36 10° N
Cosmos 1892 Rocket 3.6 23:01:37 32° SSE 23:03:30 60° E 23:07:51 10° NNE
Cosmos 1371 Rocket 4.0 23:00:02 10° NNW 23:05:24 86° WSW 23:08:06 30° SSE
Cosmos 2228 3.5 23:01:40 10° N 23:05:47 42° ENE 23:06:54 35° ESE
OAO 2 Rocket 3.9 23:04:45 10° WSW 23:09:17 36° S 23:10:01 34° SSE
deb Chang Zheng 4 4.4 23:07:23 10° NE 23:11:15 31° E 23:11:26 31° ESE
Cosmos 921 Rocket 3.3 23:07:05 10° N 23:11:32 56° ENE 23:12:53 39° SE
Cosmos 1833 Rocket 3.5 23:11:23 29° ESE 23:12:12 30° ESE 23:17:03 10° NE
Cosmos 1656 4.4 23:08:50 10° N 23:13:58 40° ENE 23:16:17 27° ESE
USA 245 3.6 23:16:10 33° WSW 23:16:26 34° WSW 23:18:45 10° NNW
Cosmos 1606 Rocket 3.6 23:12:46 10° NNW 23:17:05 71° W 23:18:50 35° S
Cosmos 2181 Rocket 4.0 23:13:08 23° S 23:17:16 78° E 23:23:36 10° N
SL-19 R/B 4.4 23:16:16 10° NNE 23:21:27 46° E 23:22:49 38° SE
SL-24 DEB 4.5 23:21:37 30° SSW 23:23:49 65° W 23:28:26 10° N
OE (NEXTSAT) 4.5 23:22:04 10° WNW 23:25:39 73° NNE 23:26:09 60° ENE
CZ-4 R/B 4.5 23:21:07 10° NNE 23:25:48 39° E 23:26:31 37° ESE
Cosmos 1726 Rocket 3.7 23:23:44 10° NNW 23:28:02 64° W 23:29:29 38° SSW
Cosmos 1515 4.0 23:28:01 38° SW 23:29:16 62° W 23:33:03 10° N
Meteor 1-4 Rocket 3.2 23:27:00 10° N 23:30:20 41° ENE 23:30:20 41° ENE
USA 267 3.6 23:26:33 10° ENE 23:32:36 39° SE 23:34:02 35° SSE
Cosmos 2058 Rocket 3.1 23:30:16 10° NNW 23:34:40 76° W 23:35:51 48° S
PSLV R/B 4.4 23:35:54 31° NNE 23:35:54 31° NNE 23:37:43 10° N
H-2A R/B 2.3 23:33:29 33° SSW 23:35:32 58° W 23:40:29 10° NNW
CARTOSAT-1 3.5 23:36:38 58° SSE 23:37:28 82° ENE 23:41:48 10° N
Cosmos 1980 Rocket 3.5 23:35:13 10° N 23:40:11 30° NE 23:42:26 23° E
DMSP B5D2-2 4.1 23:39:46 10° N 23:45:05 78° WNW 23:47:34 32° SSW
Cosmos 2322 Rocket 4.5 23:44:54 10° N 23:48:05 15° NE 23:51:16 10° E
SeaSat 1 4.2 23:46:39 17° E 23:48:45 23° NE 23:52:33 10° N
Cosmos 864 Rocket 4.5 23:43:08 10° N 23:49:27 74° E 23:51:34 44° SSE
